Home   Weather   Abidjan   Past weeks
Flag for Cote d'Ivoire (Ivory Coast)

Past Weather in Abidjan, Cote d'Ivoire (Ivory Coast) — Yesterday and Last 2 Weeks

Now
82 °F

Scattered clouds.


Feels Like: 91 °F
Forecast: N/A
Wind: 15 mph from Southwest

Location: Abidjan Airport

Current Time: Oct 18, 2019 at 4:48:58 pm

Latest Report: Oct 18, 2019 at 4:00 pm


Visibility: N/A

Pressure: 29.80 "Hg

Humidity: 84%

Dew Point: 77 °F

Location of AbidjanLocation

Past Weather in Abidjan — Graph

°F

Abidjan Temperature Yesterday

Maximum temperature yesterday: 84 °F (at 12:30 pm)
Minimum temperature yesterday: 77 °F (at 7:00 am)
Average temperature yesterday: 80 °F

High & Low Weather Summary for the Past Weeks

 TemperatureHumidityPressure
High84 °F (Oct 6, 2:00 pm)100% (Oct 4, 10:30 am)29.98 "Hg (Oct 4, 10:30 am)
Low73 °F (Oct 5, 8:00 am)74% (Oct 3, 4:00 pm)29.74 "Hg (Oct 10, 4:00 pm)
Average79 °F89%29.87 "Hg
* Reported Oct 3 3:00 pm — Oct 18 3:30 pm, Abidjan. Weather by CustomWeather, © 2019

Note: Actual official high and low records may vary slightly from our data, if they occured in-between our weather recording intervals... More about our weather records

Advertising

Abidjan Weather History for the Previous 24 Hours

Scroll right to see more
 ConditionsComfort  
Time TempWeatherWind HumidityBarometerVisibility
3:30 pm
Fri, Oct 18
82 °FScattered clouds.16 mph84%29.80 "HgN/A
3:00 pm84 °FScattered clouds.17 mph84%29.80 "HgN/A
2:30 pm84 °FScattered clouds.16 mph84%29.83 "HgN/A
2:00 pm82 °FScattered clouds.15 mph84%29.83 "HgN/A
1:30 pm84 °FScattered clouds.17 mph79%29.86 "HgN/A
1:00 pm82 °FScattered clouds.16 mph84%29.86 "HgN/A
12:30 pm84 °FScattered clouds.17 mph79%29.89 "HgN/A
12:00 pm82 °FScattered clouds.16 mph84%29.89 "HgN/A
11:30 am82 °FBroken clouds.14 mph84%29.92 "HgN/A
11:00 am82 °FScattered clouds.14 mph84%29.92 "HgN/A
10:30 am82 °FScattered clouds.13 mph84%29.92 "HgN/A
10:00 am81 °FBroken clouds.13 mph89%29.92 "HgN/A
9:30 am82 °FScattered clouds.13 mph84%29.92 "HgN/A
9:00 am82 °FBroken clouds.10 mph84%29.92 "HgN/A
8:30 am81 °FBroken clouds.6 mph89%29.92 "HgN/A
7:30 am79 °FPartly sunny.8 mph94%29.89 "HgN/A
7:00 am79 °FThunderstorms. Partly sunny.7 mph94%29.89 "HgN/A
6:30 am79 °FThunderstorms. Partly sunny.7 mph94%29.89 "HgN/A
6:00 am79 °FThunderstorms. Passing clouds.6 mph94%29.89 "HgN/A
5:30 am79 °FThunderstorms. Passing clouds.8 mph94%29.89 "HgN/A
5:00 am79 °FThunderstorms. Passing clouds.5 mph94%29.86 "HgN/A
4:30 am79 °FThunderstorms. Passing clouds.7 mph94%29.86 "HgN/A
4:00 am79 °FThunderstorms. Passing clouds.8 mph94%29.86 "HgN/A
3:30 am79 °FPassing clouds.9 mph94%29.86 "HgN/A
3:00 am79 °FPassing clouds.7 mph94%29.86 "HgN/A
2:30 am79 °FPassing clouds.9 mph94%29.86 "HgN/A
2:00 am79 °FPassing clouds.8 mph94%29.86 "HgN/A
1:30 am79 °FPassing clouds.8 mph94%29.89 "HgN/A
1:00 am79 °FPassing clouds.8 mph94%29.89 "HgN/A
12:30 am79 °FPassing clouds.8 mph94%29.89 "HgN/A
12:00 am79 °FPassing clouds.7 mph94%29.92 "HgN/A
11:30 pm
Thu, Oct 17
79 °FPassing clouds.7 mph94%29.92 "HgN/A
11:00 pm79 °FPassing clouds.7 mph94%29.92 "HgN/A
10:30 pm81 °FPassing clouds.9 mph89%29.92 "HgN/A
10:00 pm81 °FPassing clouds.8 mph89%29.92 "HgN/A
9:30 pm81 °FPassing clouds.10 mph89%29.92 "HgN/A
9:00 pm81 °FPassing clouds.9 mph89%29.92 "HgN/A
8:30 pm81 °FPassing clouds.8 mph89%29.89 "HgN/A
8:00 pm81 °FPassing clouds.7 mph89%29.89 "HgN/A
7:30 pm81 °FPassing clouds.10 mph89%29.86 "HgN/A
7:00 pm81 °FPassing clouds.8 mph89%29.86 "HgN/A
6:30 pm81 °FPassing clouds.9 mph89%29.83 "HgN/A
6:00 pm81 °FScattered clouds.10 mph89%29.83 "HgN/A
5:30 pm82 °FScattered clouds.12 mph84%29.83 "HgN/A
5:00 pm82 °FScattered clouds.14 mph84%29.83 "HgN/A
4:30 pm82 °FScattered clouds.16 mph84%29.83 "HgN/A
Weather by CustomWeather, © 2019

See weather overview